NGN4820 EDDG-LGRP

Flight info

Callsign NGN4820
Flight time 3h 1m
Altitude 37000
Route DOMEG1E DOMEG Z841 GMH Q603 TESGA DCT ESATI DCT DETEV DCT DINKU DCT BESNI DCT LATLO DCT OBEDI DCT CEPRA DCT PODET DCT IRDIV DCT REMSO DCT MEDUX UM867 KOGAT DCT ERANA UL737 TSL UN130 MES UN139 LURUS UL995 CODIC
Aircraft A320/M-SDE3FGHIJ1LORVWXY/SB1

Departure

Time 2026-05-01 11:45
Airport Münster Osnabrück Airport (EDDG)

Arrival

Time 2026-05-01 14:46
Airport Rhodes International Airport "Diagoras" (LGRP)
Time Latitude Longitude Altitude Speed Heading
2026-05-01 10:52 52.13171 7.69375 168 ft 0 kts 198°
2026-05-01 11:36 52.13194 7.69388 168 ft 4 kts 201°
2026-05-01 11:36 52.13219 7.69405 167 ft 3 kts 207°
2026-05-01 11:37 52.13242 7.69428 167 ft 3 kts 224°
2026-05-01 11:37 52.13254 7.69454 168 ft 0 kts 251°
2026-05-01 11:39 52.13254 7.69453 167 ft 1 kts 251°
2026-05-01 11:40 52.13247 7.69421 167 ft 5 kts 251°
2026-05-01 11:40 52.13248 7.69333 167 ft 10 kts 306°
2026-05-01 11:40 52.13320 7.69285 167 ft 12 kts 341°
2026-05-01 11:40 52.13404 7.69237 167 ft 12 kts 335°
2026-05-01 11:41 52.13424 7.69118 167 ft 14 kts 252°
2026-05-01 11:41 52.13384 7.68931 167 ft 21 kts 251°
2026-05-01 11:41 52.13328 7.68673 167 ft 26 kts 250°
2026-05-01 11:41 52.13268 7.68380 167 ft 28 kts 251°
2026-05-01 11:42 52.13201 7.68069 167 ft 30 kts 251°
2026-05-01 11:42 52.13133 7.67740 167 ft 31 kts 251°
2026-05-01 11:42 52.13066 7.67428 167 ft 23 kts 251°
2026-05-01 11:42 52.13028 7.67244 167 ft 13 kts 258°
2026-05-01 11:43 52.13050 7.67101 167 ft 12 kts 307°
2026-05-01 11:43 52.13112 7.67046 167 ft 10 kts 343°
2026-05-01 11:43 52.13153 7.67030 167 ft 2 kts
2026-05-01 11:44 52.13164 7.67059 166 ft 0 kts 70°
2026-05-01 11:44 52.13164 7.67061 166 ft 4 kts 70°
2026-05-01 11:44 52.13262 7.67526 165 ft 81 kts 71°
2026-05-01 11:44 52.13513 7.68712 168 ft 138 kts 70°
2026-05-01 11:45 52.13840 7.70319 578 ft 150 kts 76°
2026-05-01 11:45 52.14175 7.71911 1314 ft 148 kts 77°
2026-05-01 11:45 52.14528 7.73589 1726 ft 168 kts 77°
2026-05-01 11:45 52.14733 7.74593 1901 ft 182 kts 76°
2026-05-01 11:46 52.15139 7.76605 2222 ft 202 kts 75°
2026-05-01 11:46 52.15612 7.78924 2643 ft 224 kts 77°
2026-05-01 11:46 52.15659 7.81421 3473 ft 224 kts 113°
2026-05-01 11:46 52.14684 7.83420 4018 ft 239 kts 147°
2026-05-01 11:47 52.13154 7.84578 4839 ft 248 kts 161°
2026-05-01 11:47 52.11437 7.84934 5770 ft 255 kts 183°
2026-05-01 11:47 52.09699 7.84082 6636 ft 267 kts 199°
2026-05-01 11:47 52.07976 7.82923 7508 ft 269 kts 199°
2026-05-01 11:48 52.06233 7.81766 8388 ft 273 kts 198°
2026-05-01 11:48 52.04459 7.80598 9252 ft 277 kts 198°
2026-05-01 11:48 52.02594 7.79879 10098 ft 276 kts 178°
2026-05-01 11:48 52.00843 7.80175 10724 ft 283 kts 168°
2026-05-01 11:49 51.98828 7.80733 10995 ft 306 kts 168°
2026-05-01 11:49 51.96654 7.81340 11242 ft 328 kts 168°
2026-05-01 11:49 51.94322 7.81989 11451 ft 352 kts 168°
2026-05-01 11:49 51.91859 7.82666 11961 ft 364 kts 168°
2026-05-01 11:50 51.89338 7.83355 12685 ft 370 kts 168°
2026-05-01 11:50 51.86780 7.84046 13459 ft 375 kts 169°
2026-05-01 11:50 51.84184 7.84740 14229 ft 381 kts 169°
2026-05-01 11:50 51.81552 7.85442 14901 ft 385 kts 169°
2026-05-01 11:51 51.78856 7.86162 15582 ft 390 kts 169°
2026-05-01 11:51 51.76166 7.86878 16265 ft 394 kts 169°
2026-05-01 11:51 51.73445 7.87603 16937 ft 398 kts 169°
2026-05-01 11:51 51.70697 7.88312 17605 ft 402 kts 169°
2026-05-01 11:52 51.67915 7.88994 18261 ft 406 kts 169°
2026-05-01 11:52 51.65102 7.89664 18877 ft 411 kts 170°
2026-05-01 11:52 51.62266 7.90336 19439 ft 415 kts 170°
2026-05-01 11:52 51.59397 7.91018 20021 ft 419 kts 170°
2026-05-01 11:53 51.56495 7.91710 20601 ft 423 kts 170°
2026-05-01 11:53 51.53574 7.92410 21172 ft 427 kts 170°
2026-05-01 11:53 51.50621 7.93117 21718 ft 431 kts 170°
2026-05-01 11:53 51.47649 7.93830 22250 ft 435 kts 169°
2026-05-01 11:54 51.44644 7.94554 22758 ft 439 kts 169°
2026-05-01 11:54 51.41609 7.95283 23262 ft 443 kts 169°
2026-05-01 11:54 51.38552 7.96011 23755 ft 446 kts 170°
2026-05-01 11:54 51.35465 7.96744 24171 ft 450 kts 169°
2026-05-01 11:55 51.32355 7.97486 24553 ft 454 kts 169°
2026-05-01 11:55 51.29221 7.98237 24945 ft 457 kts 170°
2026-05-01 11:55 51.26064 7.98993 25338 ft 461 kts 170°
2026-05-01 11:55 51.22916 7.99743 25682 ft 464 kts 170°
2026-05-01 11:56 51.19713 8.00503 26023 ft 467 kts 170°
2026-05-01 11:56 51.16488 8.01266 26366 ft 470 kts 170°
2026-05-01 11:56 51.13242 8.02048 26693 ft 472 kts 169°
2026-05-01 11:56 51.09989 8.02849 26986 ft 475 kts 169°
2026-05-01 11:57 51.06712 8.03664 27267 ft 477 kts 169°
2026-05-01 11:57 51.03474 8.04784 27556 ft 477 kts 162°
2026-05-01 11:57 51.00367 8.06614 27945 ft 475 kts 153°
2026-05-01 11:57 50.97468 8.09101 28328 ft 473 kts 146°
2026-05-01 11:58 50.94698 8.11911 28703 ft 473 kts 146°
2026-05-01 11:58 50.91922 8.14713 29087 ft 472 kts 146°
2026-05-01 11:58 50.86367 8.20288 29860 ft 472 kts 146°
2026-05-01 11:59 50.83556 8.23105 30245 ft 472 kts 146°
2026-05-01 11:59 50.80952 8.25712 30592 ft 472 kts 146°
2026-05-01 11:59 50.78178 8.28487 30928 ft 472 kts 146°
2026-05-01 12:00 50.72622 8.34033 31616 ft 471 kts 146°
2026-05-01 12:00 50.69860 8.36785 31976 ft 471 kts 146°
2026-05-01 12:00 50.64320 8.42291 32702 ft 470 kts 147°
2026-05-01 12:01 50.61559 8.45030 33064 ft 469 kts 147°
2026-05-01 12:01 50.58799 8.47765 33427 ft 468 kts 147°
2026-05-01 12:01 50.56045 8.50493 33756 ft 468 kts 147°
2026-05-01 12:01 50.53374 8.53130 34024 ft 468 kts 147°
2026-05-01 12:02 50.50929 8.55541 34269 ft 467 kts 147°
2026-05-01 12:02 50.48172 8.58256 34518 ft 467 kts 147°
2026-05-01 12:02 50.45460 8.61043 34763 ft 466 kts 143°
2026-05-01 12:02 50.42942 8.64242 34999 ft 465 kts 136°
2026-05-01 12:03 50.40609 8.67760 35234 ft 464 kts 135°
2026-05-01 12:03 50.38289 8.71274 35394 ft 464 kts 135°
2026-05-01 12:03 50.35965 8.74770 35640 ft 463 kts 135°
2026-05-01 12:03 50.33962 8.77772 35858 ft 463 kts 135°
2026-05-01 12:04 50.31630 8.81264 36106 ft 463 kts 135°
2026-05-01 12:04 50.29310 8.84738 36366 ft 462 kts 135°
2026-05-01 12:04 50.26991 8.88209 36617 ft 462 kts 135°
2026-05-01 12:04 50.24672 8.91680 36880 ft 461 kts 135°
2026-05-01 12:05 50.22368 8.95125 37150 ft 460 kts 135°
2026-05-01 12:05 50.17730 9.02044 37364 ft 460 kts 135°
2026-05-01 12:05 50.15420 9.05480 37360 ft 459 kts 135°
2026-05-01 12:06 50.10759 9.12400 37362 ft 459 kts 135°
2026-05-01 12:06 50.06202 9.19144 37360 ft 447 kts 135°
2026-05-01 12:07 50.01712 9.25789 37360 ft 445 kts 135°
2026-05-01 12:07 49.97219 9.32411 37360 ft 445 kts 135°
2026-05-01 12:08 49.93485 9.37903 37359 ft 445 kts 135°
2026-05-01 12:08 49.88983 9.44507 37360 ft 445 kts 135°
2026-05-01 12:09 49.84481 9.51085 37366 ft 445 kts 135°
2026-05-01 12:09 49.79965 9.57674 37372 ft 446 kts 135°
2026-05-01 12:10 49.73183 9.67521 37376 ft 446 kts 135°
2026-05-01 12:11 49.66389 9.77345 37376 ft 446 kts 135°
2026-05-01 12:11 49.61828 9.83912 37384 ft 446 kts 135°
2026-05-01 12:12 49.57293 9.90430 37393 ft 446 kts 135°
2026-05-01 12:12 49.52752 9.96935 37398 ft 446 kts 135°
2026-05-01 12:13 49.48208 10.03427 37399 ft 446 kts 135°
2026-05-01 12:13 49.43666 10.09913 37402 ft 446 kts 135°
2026-05-01 12:14 49.39119 10.16387 37402 ft 446 kts 135°
2026-05-01 12:14 49.34568 10.22836 37396 ft 445 kts 135°
2026-05-01 12:15 49.30016 10.29279 37399 ft 445 kts 135°
2026-05-01 12:15 49.25459 10.35711 37408 ft 445 kts 135°
2026-05-01 12:16 49.20928 10.42159 37410 ft 445 kts 134°
2026-05-01 12:16 49.16501 10.48775 37413 ft 444 kts 133°
2026-05-01 12:17 49.12111 10.55398 37414 ft 444 kts 133°
2026-05-01 12:17 49.07683 10.61987 37416 ft 444 kts 134°
2026-05-01 12:18 49.03236 10.68523 37419 ft 444 kts 134°
2026-05-01 12:18 48.98787 10.75050 37415 ft 444 kts 134°
2026-05-01 12:19 48.94342 10.81576 37412 ft 444 kts 134°
2026-05-01 12:19 48.89870 10.88129 37407 ft 444 kts 133°
2026-05-01 12:20 48.85420 10.94628 37398 ft 444 kts 134°
2026-05-01 12:20 48.80968 11.01110 37396 ft 444 kts 133°
2026-05-01 12:21 48.76514 11.07596 37401 ft 444 kts 133°
2026-05-01 12:21 48.72050 11.14076 37402 ft 444 kts 134°
2026-05-01 12:22 48.67579 11.20518 37404 ft 444 kts 134°
2026-05-01 12:22 48.63244 11.26802 37409 ft 443 kts 131°
2026-05-01 12:23 48.59064 11.33620 37391 ft 441 kts 128°
2026-05-01 12:23 48.55027 11.40601 37392 ft 441 kts 128°
2026-05-01 12:24 48.50942 11.47519 37381 ft 441 kts 129°
2026-05-01 12:24 48.46796 11.54364 37388 ft 441 kts 129°
2026-05-01 12:25 48.40559 11.64572 37398 ft 441 kts 129°
2026-05-01 12:26 48.36415 11.71380 37402 ft 441 kts 129°
2026-05-01 12:26 48.30227 11.81527 37405 ft 441 kts 129°
2026-05-01 12:27 48.23996 11.91690 37400 ft 441 kts 129°
2026-05-01 12:28 48.17728 12.01867 37392 ft 441 kts 129°
2026-05-01 12:29 48.11489 12.11970 37381 ft 440 kts 129°
2026-05-01 12:29 48.05243 12.22035 37376 ft 440 kts 129°
2026-05-01 12:30 47.98979 12.32083 37373 ft 440 kts 129°
2026-05-01 12:31 47.94806 12.38765 37374 ft 440 kts 129°
2026-05-01 12:31 47.90631 12.45438 37369 ft 440 kts 129°
2026-05-01 12:32 47.86925 12.51340 37372 ft 440 kts 129°
2026-05-01 12:32 47.80662 12.61279 37370 ft 440 kts 129°
2026-05-01 12:33 47.76471 12.67913 37368 ft 440 kts 129°
2026-05-01 12:33 47.72280 12.74528 37373 ft 440 kts 129°
2026-05-01 12:34 47.68079 12.81137 37373 ft 440 kts 129°
2026-05-01 12:34 47.63790 12.87626 37372 ft 441 kts 131°
2026-05-01 12:35 47.59389 12.94031 37372 ft 441 kts 131°
2026-05-01 12:35 47.55023 13.00393 37362 ft 440 kts 130°
2026-05-01 12:36 47.50678 13.06790 37356 ft 440 kts 130°
2026-05-01 12:36 47.46342 13.13180 37350 ft 440 kts 130°
2026-05-01 12:37 47.41995 13.19552 37348 ft 440 kts 130°
2026-05-01 12:37 47.37638 13.25909 37347 ft 440 kts 130°
2026-05-01 12:38 47.33292 13.32269 37346 ft 438 kts 127°
2026-05-01 12:38 47.29648 13.39361 37352 ft 434 kts 121°
2026-05-01 12:39 47.26120 13.46554 37350 ft 434 kts 121°
2026-05-01 12:39 47.22569 13.53744 37362 ft 434 kts 121°
2026-05-01 12:40 47.19016 13.60922 37343 ft 433 kts 121°
2026-05-01 12:40 47.15457 13.68081 37341 ft 435 kts 121°
2026-05-01 12:41 47.11887 13.75259 37349 ft 435 kts 121°
2026-05-01 12:41 47.08315 13.82427 37358 ft 435 kts 120°
2026-05-01 12:42 47.05324 13.88411 37360 ft 435 kts 121°
2026-05-01 12:42 47.01740 13.95559 37365 ft 435 kts 121°
2026-05-01 12:43 46.98150 14.02707 37367 ft 435 kts 120°
2026-05-01 12:43 46.94562 14.09835 37376 ft 435 kts 120°
2026-05-01 12:44 46.90969 14.16952 37388 ft 434 kts 120°
2026-05-01 12:45 46.83778 14.31129 37394 ft 434 kts 120°
2026-05-01 12:45 46.80180 14.38214 37395 ft 434 kts 120°
2026-05-01 12:46 46.76570 14.45284 37399 ft 434 kts 120°
2026-05-01 12:46 46.72959 14.52346 37398 ft 435 kts 120°
2026-05-01 12:47 46.69341 14.59397 37392 ft 434 kts 120°
2026-05-01 12:47 46.65695 14.66504 37387 ft 435 kts 120°
2026-05-01 12:48 46.61533 14.73003 37381 ft 441 kts 128°
2026-05-01 12:48 46.57177 14.79312 37370 ft 442 kts 129°
2026-05-01 12:49 46.52809 14.85600 37362 ft 442 kts 129°
2026-05-01 12:49 46.48443 14.91892 37358 ft 442 kts 128°
2026-05-01 12:50 46.44078 14.98193 37368 ft 443 kts 128°
2026-05-01 12:50 46.39710 15.04483 37363 ft 443 kts 128°
2026-05-01 12:51 46.35330 15.10755 37344 ft 444 kts 128°
2026-05-01 12:52 46.28747 15.20181 37361 ft 443 kts 128°
2026-05-01 12:52 46.22187 15.29612 37373 ft 443 kts 128°
2026-05-01 12:53 46.15590 15.39064 37378 ft 443 kts 128°
2026-05-01 12:54 46.11208 15.45319 37380 ft 443 kts 128°
2026-05-01 12:54 46.04620 15.54683 37382 ft 443 kts 128°
2026-05-01 12:55 46.00968 15.59856 37384 ft 443 kts 128°
2026-05-01 12:56 45.99586 15.61811 37382 ft 443 kts 128°
2026-05-01 12:56 45.97112 15.66400 37383 ft 431 kts 117°
2026-05-01 12:56 45.95163 15.69740 37373 ft 442 kts 128°
2026-05-01 12:57 45.92967 15.72837 37374 ft 442 kts 128°
2026-05-01 12:57 45.86377 15.82121 37374 ft 443 kts 128°
2026-05-01 12:58 45.82003 15.88218 37373 ft 443 kts 128°
2026-05-01 12:59 45.75353 15.97434 37376 ft 444 kts 129°
2026-05-01 12:59 45.68668 16.06687 37382 ft 443 kts 129°
2026-05-01 13:00 45.62018 16.15874 37375 ft 443 kts 129°
2026-05-01 13:01 45.55357 16.25044 37379 ft 443 kts 129°
2026-05-01 13:02 45.48681 16.34168 37375 ft 443 kts 129°
2026-05-01 13:07 44.99421 17.00720 37374 ft 446 kts 130°
2026-05-01 13:08 44.94906 17.06738 37373 ft 447 kts 131°
2026-05-01 13:08 44.90370 17.12746 37370 ft 447 kts 131°
2026-05-01 13:09 44.85829 17.18750 37374 ft 448 kts 131°
2026-05-01 13:09 44.81277 17.24766 37364 ft 449 kts 131°
2026-05-01 13:10 44.76715 17.30778 37364 ft 449 kts 131°
2026-05-01 13:10 44.72115 17.36826 37359 ft 450 kts 131°
2026-05-01 13:11 44.67537 17.42832 37353 ft 451 kts 131°
2026-05-01 13:11 44.62946 17.48833 37349 ft 451 kts 132°
2026-05-01 13:12 44.59124 17.53815 37347 ft 451 kts 132°
2026-05-01 13:12 44.54518 17.59810 37344 ft 452 kts 132°
2026-05-01 13:13 44.49910 17.65810 37345 ft 453 kts 132°
2026-05-01 13:13 44.45291 17.71814 37341 ft 453 kts 133°
2026-05-01 13:14 44.40666 17.77800 37338 ft 453 kts 133°
2026-05-01 13:14 44.36029 17.83787 37328 ft 453 kts 133°
2026-05-01 13:15 44.31359 17.89801 37327 ft 454 kts 133°
2026-05-01 13:15 44.26704 17.95776 37323 ft 455 kts 133°
2026-05-01 13:16 44.22043 18.01751 37323 ft 455 kts 133°
2026-05-01 13:16 44.17378 18.07723 37316 ft 456 kts 134°
2026-05-01 13:17 44.08022 18.19651 37300 ft 456 kts 134°
2026-05-01 13:18 44.00984 18.28585 37289 ft 457 kts 134°
2026-05-01 13:18 43.96288 18.34544 37290 ft 458 kts 134°
2026-05-01 13:19 43.91581 18.40491 37289 ft 458 kts 134°
2026-05-01 13:20 43.84506 18.49412 37285 ft 459 kts 135°
2026-05-01 13:20 43.79780 18.55352 37287 ft 459 kts 135°
2026-05-01 13:21 43.72652 18.64288 37281 ft 459 kts 135°
2026-05-01 13:21 43.67913 18.70202 37278 ft 459 kts 135°
2026-05-01 13:22 43.63164 18.76122 37271 ft 460 kts 135°
2026-05-01 13:22 43.58413 18.82032 37266 ft 460 kts 135°
2026-05-01 13:23 43.53657 18.87946 37262 ft 461 kts 135°
2026-05-01 13:23 43.48890 18.93853 37259 ft 461 kts 136°
2026-05-01 13:24 43.44412 19.00132 37256 ft 460 kts 130°
2026-05-01 13:25 43.37906 19.09836 37253 ft 460 kts 130°
2026-05-01 13:25 43.33557 19.16302 37252 ft 461 kts 130°
2026-05-01 13:26 43.29186 19.22757 37246 ft 462 kts 130°
2026-05-01 13:26 43.24816 19.29212 37242 ft 462 kts 131°
2026-05-01 13:27 43.20437 19.35682 37246 ft 463 kts 131°
2026-05-01 13:27 43.13846 19.45377 37241 ft 464 kts 131°
2026-05-01 13:28 43.07227 19.55080 37242 ft 465 kts 131°
2026-05-01 13:29 42.98345 19.68035 37237 ft 466 kts 132°
2026-05-01 13:31 42.84994 19.87406 37236 ft 468 kts 132°
2026-05-01 13:32 42.73827 20.03539 37241 ft 468 kts 131°
2026-05-01 13:33 42.63550 20.20689 37247 ft 468 kts 128°
2026-05-01 13:34 42.55264 20.34320 37250 ft 468 kts 130°
2026-05-01 13:35 42.49016 20.44499 37248 ft 468 kts 130°
2026-05-01 13:36 42.42851 20.54568 37244 ft 469 kts 130°
2026-05-01 13:36 42.36596 20.64731 37247 ft 469 kts 130°
2026-05-01 13:37 42.33124 20.70368 37247 ft 469 kts 130°
2026-05-01 13:37 42.28223 20.78273 37249 ft 469 kts 130°
2026-05-01 13:38 42.21940 20.88413 37248 ft 470 kts 130°
2026-05-01 13:39 42.17738 20.95159 37252 ft 470 kts 131°
2026-05-01 13:39 42.13529 21.01898 37249 ft 470 kts 131°
2026-05-01 13:40 42.09084 21.08321 37244 ft 469 kts 138°
2026-05-01 13:40 42.04334 21.14353 37244 ft 470 kts 138°
2026-05-01 13:41 41.99577 21.20378 37240 ft 470 kts 138°
2026-05-01 13:41 41.94818 21.26406 37241 ft 471 kts 138°
2026-05-01 13:42 41.90041 21.32435 37239 ft 471 kts 138°
2026-05-01 13:42 41.85267 21.38449 37240 ft 471 kts 139°
2026-05-01 13:43 41.80482 21.44468 37239 ft 472 kts 139°
2026-05-01 13:43 41.75664 21.50522 37235 ft 472 kts 139°
2026-05-01 13:44 41.71683 21.55520 37232 ft 472 kts 139°
2026-05-01 13:44 41.66879 21.61524 37227 ft 472 kts 139°
2026-05-01 13:45 41.62069 21.67520 37221 ft 473 kts 139°
2026-05-01 13:45 41.57253 21.73512 37215 ft 474 kts 139°
2026-05-01 13:46 41.52428 21.79509 37211 ft 474 kts 139°
2026-05-01 13:46 41.47597 21.85495 37211 ft 474 kts 140°
2026-05-01 13:47 41.42754 21.91473 37211 ft 475 kts 140°
2026-05-01 13:47 41.37909 21.97454 37211 ft 475 kts 140°
2026-05-01 13:48 41.33060 22.03435 37210 ft 475 kts 140°
2026-05-01 13:48 41.28202 22.09400 37212 ft 475 kts 140°
2026-05-01 13:49 41.23343 22.15364 37217 ft 476 kts 140°
2026-05-01 13:49 41.18548 22.21355 37213 ft 477 kts 138°
2026-05-01 13:50 41.13876 22.27721 37207 ft 478 kts 136°
2026-05-01 13:50 41.09216 22.34136 37213 ft 489 kts 137°
2026-05-01 13:51 41.04416 22.40580 37217 ft 493 kts 138°
2026-05-01 13:51 40.99562 22.47006 37218 ft 494 kts 138°
2026-05-01 13:52 40.94697 22.53434 37220 ft 494 kts 138°
2026-05-01 13:52 40.89836 22.59856 37221 ft 494 kts 138°
2026-05-01 13:53 40.84970 22.66289 37225 ft 495 kts 138°
2026-05-01 13:53 40.77626 22.75968 37233 ft 495 kts 138°
2026-05-01 13:54 40.72750 22.82376 37236 ft 496 kts 139°
2026-05-01 13:54 40.67851 22.88795 37239 ft 496 kts 139°
2026-05-01 13:55 40.62948 22.95201 37244 ft 497 kts 139°
2026-05-01 13:55 40.58042 23.01602 37244 ft 497 kts 139°
2026-05-01 13:56 40.53131 23.08005 37243 ft 498 kts 139°
2026-05-01 13:56 40.48210 23.14408 37241 ft 498 kts 139°
2026-05-01 13:57 40.43285 23.20799 37233 ft 498 kts 139°
2026-05-01 13:57 40.38345 23.27186 37225 ft 499 kts 139°
2026-05-01 13:58 40.33397 23.33563 37214 ft 499 kts 139°
2026-05-01 13:58 40.28445 23.39952 37208 ft 499 kts 139°
2026-05-01 13:59 40.23460 23.46366 37203 ft 500 kts 140°
2026-05-01 13:59 40.18494 23.52725 37204 ft 500 kts 140°
2026-05-01 14:00 40.13519 23.59096 37197 ft 500 kts 140°
2026-05-01 14:00 40.08543 23.65457 37197 ft 501 kts 140°
2026-05-01 14:01 40.03558 23.71801 37201 ft 501 kts 140°
2026-05-01 14:01 39.98565 23.78146 37196 ft 501 kts 140°
2026-05-01 14:02 39.93585 23.84462 37193 ft 501 kts 140°
2026-05-01 14:02 39.88582 23.90795 37193 ft 501 kts 141°
2026-05-01 14:03 39.83574 23.97121 37190 ft 502 kts 141°
2026-05-01 14:03 39.78563 24.03438 37191 ft 502 kts 141°
2026-05-01 14:04 39.73542 24.09757 37183 ft 502 kts 141°
2026-05-01 14:04 39.69331 24.15041 37181 ft 503 kts 141°
2026-05-01 14:05 39.63446 24.22410 37179 ft 503 kts 141°
2026-05-01 14:05 39.58402 24.28720 37171 ft 504 kts 141°
2026-05-01 14:06 39.53350 24.35019 37164 ft 504 kts 141°
2026-05-01 14:06 39.48292 24.41314 37158 ft 505 kts 141°
2026-05-01 14:07 39.43230 24.47618 37154 ft 505 kts 142°
2026-05-01 14:08 39.35604 24.57034 37150 ft 506 kts 142°
2026-05-01 14:08 39.30516 24.63316 37154 ft 506 kts 142°
2026-05-01 14:09 39.25432 24.69593 37148 ft 507 kts 142°
2026-05-01 14:09 39.20329 24.75874 37147 ft 507 kts 142°
2026-05-01 14:10 39.15185 24.82178 37141 ft 507 kts 142°
2026-05-01 14:10 39.10070 24.88451 37136 ft 508 kts 143°
2026-05-01 14:11 39.04951 24.94715 37126 ft 508 kts 143°
2026-05-01 14:11 38.97249 25.04102 37116 ft 509 kts 143°
2026-05-01 14:12 38.92096 25.10366 37109 ft 510 kts 143°
2026-05-01 14:12 38.86946 25.16618 37112 ft 510 kts 143°
2026-05-01 14:13 38.82618 25.21854 37106 ft 511 kts 143°
2026-05-01 14:13 38.76494 25.28904 37097 ft 502 kts 152°
2026-05-01 14:14 38.70804 25.34082 37094 ft 502 kts 152°
2026-05-01 14:14 38.65105 25.39264 37082 ft 503 kts 153°
2026-05-01 14:15 38.59387 25.44446 37075 ft 504 kts 153°
2026-05-01 14:15 38.54597 25.48787 37073 ft 504 kts 153°
2026-05-01 14:16 38.48876 25.53962 37071 ft 505 kts 153°
2026-05-01 14:16 38.43141 25.59130 37067 ft 505 kts 153°
2026-05-01 14:17 38.37392 25.64300 37064 ft 505 kts 153°
2026-05-01 14:17 38.31644 25.69467 37062 ft 506 kts 153°
2026-05-01 14:18 38.25895 25.74650 37061 ft 507 kts 153°
2026-05-01 14:18 38.20147 25.79843 37057 ft 507 kts 153°
2026-05-01 14:19 38.14390 25.85043 37054 ft 507 kts 153°
2026-05-01 14:19 38.08592 25.90255 37053 ft 508 kts 153°
2026-05-01 14:20 37.99934 25.98006 37045 ft 508 kts 153°
2026-05-01 14:21 37.94166 26.03173 37045 ft 508 kts 153°
2026-05-01 14:21 37.88395 26.08329 37053 ft 508 kts 153°
2026-05-01 14:22 37.79735 26.16035 37053 ft 507 kts 154°
2026-05-01 14:22 37.73953 26.21154 37046 ft 507 kts 154°
2026-05-01 14:23 37.68181 26.26266 37036 ft 507 kts 154°
2026-05-01 14:23 37.62406 26.31380 37035 ft 507 kts 153°
2026-05-01 14:24 37.56635 26.36485 37032 ft 507 kts 154°
2026-05-01 14:24 37.50858 26.41576 37030 ft 507 kts 154°
2026-05-01 14:25 37.45078 26.46659 37027 ft 506 kts 154°
2026-05-01 14:25 37.39263 26.51764 37021 ft 506 kts 154°
2026-05-01 14:26 37.36400 26.54270 36465 ft 511 kts 154°
2026-05-01 14:26 37.30521 26.59399 34827 ft 514 kts 154°
2026-05-01 14:26 37.27554 26.61995 34098 ft 513 kts 154°
2026-05-01 14:27 37.24638 26.64553 33411 ft 509 kts 154°
2026-05-01 14:27 37.21749 26.67087 32782 ft 505 kts 154°
2026-05-01 14:27 37.18882 26.69598 32195 ft 501 kts 154°
2026-05-01 14:28 37.13176 26.74575 30563 ft 504 kts 154°
2026-05-01 14:28 37.10434 26.76945 29629 ft 508 kts 154°
2026-05-01 14:28 37.07532 26.79455 29014 ft 505 kts 153°
2026-05-01 14:28 37.04644 26.81957 28596 ft 504 kts 153°
2026-05-01 14:29 37.01773 26.84451 28129 ft 500 kts 153°
2026-05-01 14:29 36.98932 26.86920 27674 ft 496 kts 153°
2026-05-01 14:30 36.90527 26.94142 26260 ft 481 kts 153°
2026-05-01 14:30 36.87762 26.96459 25789 ft 476 kts 153°
2026-05-01 14:30 36.85025 26.98730 25296 ft 471 kts 153°
2026-05-01 14:31 36.79625 27.03203 24310 ft 461 kts 153°
2026-05-01 14:31 36.76935 27.05440 23806 ft 456 kts 152°
2026-05-01 14:31 36.74358 27.07637 23329 ft 453 kts 148°
2026-05-01 14:31 36.72106 27.10435 23045 ft 452 kts 131°
2026-05-01 14:32 36.70519 27.13815 22715 ft 455 kts 117°
2026-05-01 14:32 36.69262 27.17420 22161 ft 452 kts 116°
2026-05-01 14:32 36.68034 27.20992 21831 ft 447 kts 116°
2026-05-01 14:32 36.66829 27.24560 21570 ft 445 kts 115°
2026-05-01 14:33 36.65644 27.28115 21124 ft 443 kts 115°
2026-05-01 14:33 36.64470 27.31656 20665 ft 440 kts 115°
2026-05-01 14:33 36.63306 27.35154 20215 ft 436 kts 116°
2026-05-01 14:33 36.62144 27.38621 19771 ft 432 kts 116°
2026-05-01 14:34 36.60990 27.42048 19359 ft 427 kts 116°
2026-05-01 14:34 36.59847 27.45429 18916 ft 422 kts 116°
2026-05-01 14:34 36.58712 27.48782 18462 ft 419 kts 116°
2026-05-01 14:34 36.57586 27.52107 17971 ft 415 kts 116°
2026-05-01 14:35 36.56471 27.55396 17435 ft 411 kts 116°
2026-05-01 14:35 36.55516 27.58213 16974 ft 408 kts 116°
2026-05-01 14:35 36.54421 27.61450 16449 ft 404 kts 115°
2026-05-01 14:35 36.53332 27.64669 15714 ft 406 kts 115°
2026-05-01 14:36 36.52232 27.67908 15080 ft 405 kts 115°
2026-05-01 14:36 36.51139 27.71121 14524 ft 402 kts 115°
2026-05-01 14:36 36.50055 27.74310 13992 ft 399 kts 115°
2026-05-01 14:36 36.48968 27.77508 13411 ft 394 kts 115°
2026-05-01 14:37 36.47908 27.80617 12620 ft 389 kts 115°
2026-05-01 14:37 36.46854 27.83693 11853 ft 384 kts 115°
2026-05-01 14:37 36.45810 27.86724 11122 ft 379 kts 115°
2026-05-01 14:37 36.44812 27.89634 10905 ft 353 kts 115°
2026-05-01 14:38 36.43887 27.92341 10757 ft 329 kts 114°
2026-05-01 14:38 36.43290 27.95010 10330 ft 319 kts 94°
2026-05-01 14:38 36.43533 27.97703 9773 ft 313 kts 73°
2026-05-01 14:38 36.44147 28.00281 9100 ft 310 kts 71°
2026-05-01 14:39 36.44791 28.02822 8494 ft 307 kts 70°
2026-05-01 14:39 36.45426 28.05334 7894 ft 304 kts 70°
2026-05-01 14:39 36.46053 28.07830 7315 ft 300 kts 70°
2026-05-01 14:39 36.46661 28.10293 6758 ft 297 kts 70°
2026-05-01 14:40 36.47259 28.12733 6212 ft 293 kts 70°
2026-05-01 14:40 36.47845 28.15142 5651 ft 290 kts 70°
2026-05-01 14:40 36.48426 28.17518 5100 ft 286 kts 71°
2026-05-01 14:40 36.49004 28.19864 4550 ft 282 kts 70°
2026-05-01 14:41 36.49577 28.22166 4068 ft 275 kts 71°
2026-05-01 14:41 36.49800 28.24475 3692 ft 267 kts 98°
2026-05-01 14:41 36.49152 28.26569 3319 ft 257 kts 128°
2026-05-01 14:41 36.47800 28.27892 2924 ft 243 kts 167°
2026-05-01 14:42 36.46256 28.27848 2806 ft 211 kts 210°
2026-05-01 14:42 36.45327 28.26684 2706 ft 180 kts 255°
2026-05-01 14:42 36.45249 28.25204 2500 ft 164 kts 271°
2026-05-01 14:42 36.44964 28.23860 2310 ft 162 kts 252°
2026-05-01 14:43 36.44589 28.22559 2083 ft 159 kts 254°
2026-05-01 14:43 36.44224 28.21276 1873 ft 156 kts 254°
2026-05-01 14:43 36.43864 28.20029 1676 ft 147 kts 254°
2026-05-01 14:43 36.43533 28.18895 1472 ft 134 kts 254°
2026-05-01 14:44 36.43222 28.17820 1295 ft 131 kts 254°
2026-05-01 14:44 36.42609 28.15717 937 ft 129 kts 252°
2026-05-01 14:44 36.42304 28.14673 769 ft 129 kts 252°
2026-05-01 14:45 36.41998 28.13620 598 ft 130 kts 253°
2026-05-01 14:45 36.41386 28.11525 266 ft 129 kts 252°
2026-05-01 14:45 36.41083 28.10480 91 ft 129 kts 252°
2026-05-01 14:46 36.40884 28.09806 30 ft 118 kts 253°
2026-05-01 14:46 36.40565 28.08711 29 ft 34 kts 249°
2026-05-01 14:46 36.40493 28.08626 28 ft 14 kts 155°
2026-05-01 14:47 36.40467 28.08675 28 ft 5 kts 115°
2026-05-01 14:47 36.40449 28.08721 28 ft 7 kts 116°
2026-05-01 14:47 36.40443 28.08737 28 ft 2 kts 116°
2026-05-01 14:48 36.40404 28.08833 28 ft 11 kts 100°
2026-05-01 14:48 36.40397 28.08930 28 ft 12 kts 88°
2026-05-01 14:48 36.40345 28.09023 28 ft 3 kts 161°
2026-05-01 14:49 36.40332 28.09029 28 ft 0 kts 160°